Tracking 28790 objects as of 19-Apr-2024
HD Live streaming from Space Station
objects crossing your sky now

COSMOS 1431

Track COSMOS 1431 now!
10-day predictions
COSMOS 1431 is classified as:


NORAD ID: 13763
Int'l Code: 1983-002C
Perigee: 1,472.3 km
Apogee: 1,489.9 km
Inclination: 74.0 °
Period: 115.4 minutes
Semi major axis: 7852 km
RCS: 0.6684 m2 (medium)
Launch date: January 19, 1983
Source: Commonwealth of Independent States (former USSR) (CIS)
Launch site: PLESETSK MISSILE AND SPACE COMPLEX (PKMTR)
Your satellite tracking list
Your tracking list is empty




NASA's NSSDC Master Catalog

Two Line Element Set (TLE):
1 13763U 83002C   24109.86110524 -.00000008  00000-0  55945-4 0  9997
2 13763  74.0279  23.2166 0011195  16.5125  50.2045 12.47730808878737
Source of the keplerian elements: AFSPC